Volver al catálogo

INTELSAT 2-F3

ActivoComunicacionesGEO
NORAD 2717·PAYLOAD· XX

Lanzado Mar 23, 1967 desde Cape Canaveral Space Force Station

Loading…

TLE

ActualizadoSource: Space-Track

Época: Sep 14, 2026, 14:05 UTC

1 02717U 67026A   26257.58740773  .00000000  00000-0  00000-0 0  9991
2 02717   4.2969  67.2721 0017615 222.1682 337.6063  1.00390900124790

Sigue INTELSAT 2-F3 en tiempo real con AllMySat

Download on the App Store